Find TIGER-8

NORAD ID: 59120 Int'l Des: 2024-043 Owner: OQT Country: L operational
LEOCIRCULARRETROGRADESSO

現在のビュー

3D地球を読み込み中...

About TIGER-8

TIGER-8 (NORAD 59120) is a satellite launched Mar 4, 2024 by OQT of L. It operates in LEO, CIRCULAR, RETROGRADE, SSO orbit with a mass of 10.00 kg.

次回通過

Passes for default location (London). Set your location on the main map for personalized predictions.

高度履歴

Loading altitude history...

軌道要素

1 59120U 24043Y 26194.38596620 .00005997 00000-0 12841-3 0 9990
2 59120 97.5564 344.0583 0008886 108.3530 251.8686 15.45148619131838
Epoch: Jul 13, 2026 • Age: 17 hours

現在のステータス

高度 433.3 km
遠地点 / 近地点 N/A
速度 7.65 km/s
衛星直下点 15.90°N, 14.24°E
打ち上げ日 Mar 4, 2024
運用期間 2.3 years
タイプ other

技術仕様

分類 Payload
質量 10.00 kg
乾燥質量 10.00 kg
総質量 10.00 kg
長さ 0.30 m
直径 0.20 m
スパン 0.30 m
形状 Box+2 pan
製造者 NANAV
バスタイプ Cubesat 6U
フェーズステータス In Orbit
所有者/国 OQT/L

Most Searched